Regional Weather Roundup
Issued by NWS

Home | Current Version | Previous Version | Graphics & Text | Print | Product List | Glossary On
Versions: 1 2 3 4 5 6 7 8 9 10 11 12 13 14 15 16 17 18 19 20 21 22 23 24 25 26 27 28 29 30 31 32 33 34 35 36 37 38 39 40 41 42 43 44 45 46 47 48 49 50
000
ASUS43 KLSX 202259
RWRMO

WEATHER SUMMARY FOR MISSOURI
NATIONAL WEATHER SERVICE SPRINGFIELD MO
600 PM CDT SUN APR 20 2014

NOTE: "FAIR" INDICATES FEW OR NO CLOUDS BELOW 12,000 FEET WITH NO
       SIGNIFICANT WEATHER AND/OR OBSTRUCTIONS TO VISIBILITY.
       CURRENT SKY AND/OR WEATHER CONDITIONS ARE NOT AVAILABLE FOR
       CHILLICOTHE AND FARMINGTON.

MOZ001>031-035>038-043-044-053-054-210000-
...NORTHERN AND WESTERN MISSOURI...

CITY           SKY/WX    TMP DP  RH WIND       PRES   REMARKS
KANSAS CTY INT CLOUDY    76  53  44 SW17G24   29.99F
KANSAS C DTWN  CLOUDY    76  53  44 SW14G22   29.99F
LEE`S SUMMIT   CLOUDY    73  52  47 SW13      30.02F
ST JOSEPH      CLOUDY    76  53  44 S9        29.97F
KIRKSVILLE     CLOUDY    77  50  38 S8        30.03F

$$
MOZ066>068-077>081-088>096-101>105-210000-
...SOUTHWEST MISSOURI...

CITY           SKY/WX    TMP DP  RH WIND       PRES   REMARKS
SPRINGFIELD    PTSUNNY   75  51  43 SW6       30.06F
JOPLIN         CLOUDY    73  52  47 SW8       30.06F

$$
MOZ032>034-039>042-045>050-055>058-069>072-210000-
...CENTRAL MISSOURI...

CITY           SKY/WX    TMP DP  RH WIND       PRES   REMARKS
COLUMBIA       MOSUNNY   77  49  37 S10       30.04F
JEFFERSON CITY MOSUNNY   79  45  29 SW9       30.03F
ROLLA          PTSUNNY   76  48  37 S10       30.05F
SEDALIA        CLOUDY    75  52  44 SW7       30.04F
OSAGE BEACH    CLOUDY    77  46  33 S6        30.06S

$$
MOZ051-052-059>065-210000-
...EAST CENTRAL MISSOURI...

CITY           SKY/WX    TMP DP  RH WIND       PRES   REMARKS
ST LOUIS INTL  PTSUNNY   82  39  21 S8        30.05F
SPIRIT OF STL  MOSUNNY   81  37  20 SW8       30.03F
ST CHARLES     MOSUNNY   80  41  24 S10       30.03F

$$
MOZ072>076-082>087-097>100-106>115-210000-
...SOUTH CENTRAL AND SOUTHEAST MISSOURI...

CITY           SKY/WX    TMP DP  RH WIND       PRES   REMARKS
CAPE GIRARDEAU MOSUNNY   77  46  33 S8        30.09F
FARMINGTON     MOSUNNY   77  41  27 S8        30.11S
POPLAR BLUFF   MOSUNNY   77  44  30 S3        30.08S
WEST PLAINS    CLOUDY    75  46  35 CALM      30.09F

$$



USA.gov is the U.S. government's official web portal to all federal, state and local government web resources and services.